Location: Arbon
(43.0005°N, 0.7472°E)
Time: 22:16:06
(UTC+00:00)

Explorer 11/Cluster Stage 4 - All Passes

Search period start: 05 December 2020 00:00
Search period end: 15 December 2020 00:00
Orbit: 467 x 1258 km, 28.8° (Epoch: 04 December)

Date Brightness Start Highest point End Pass type
(mag) Time Alt. Az. Time Alt. Az. Time Alt. Az.
05 Dec - 18:17:13 10° SSW 18:23:02 21° SSE 18:28:35 10° ESE visible
05 Dec - 20:04:52 10° SW 20:11:18 27° S 20:17:08 10° SE visible
05 Dec - 21:54:03 10° WSW 21:59:23 21° SSW 22:04:07 10° SSE visible
06 Dec - 16:21:22 10° S 16:23:48 12° SSE 16:26:16 10° SE daylight
06 Dec - 18:05:45 10° SW 18:11:50 23° SSE 18:17:44 10° ESE visible
06 Dec - 19:53:33 10° SW 20:00:08 28° S 20:06:11 10° SE visible
06 Dec - 21:42:52 10° WSW 21:48:14 21° SSW 21:53:04 10° SSE visible
07 Dec - 16:09:12 10° S 16:12:34 13° SSE 16:16:01 10° SE daylight
07 Dec - 17:54:22 10° SW 18:00:39 25° SSE 18:06:48 10° ESE visible
07 Dec - 19:42:18 10° WSW 19:48:58 28° S 19:55:11 10° SE visible
07 Dec - 21:31:44 10° WSW 21:37:05 20° SSW 21:41:57 10° SSE visible
08 Dec - 15:57:24 10° S 16:01:21 15° SSE 16:05:25 10° SE daylight
08 Dec - 17:43:02 10° SW 17:49:26 26° S 17:55:48 10° ESE visible
08 Dec - 19:31:05 10° WSW 19:37:47 28° S 19:44:07 10° SE visible
08 Dec - 21:20:39 10° WSW 21:25:54 19° SSW 21:30:45 10° SSE visible
09 Dec - 15:45:47 10° S 15:50:08 16° SSE 15:54:39 10° ESE daylight
09 Dec - 17:31:46 10° SW 17:38:13 27° S 17:44:45 10° ESE visible
09 Dec - 19:19:53 10° WSW 19:26:35 28° S 19:33:01 10° SE visible
09 Dec - 21:09:36 10° WSW 21:14:42 18° SSW 21:19:29 10° SSE visible
10 Dec - 15:34:19 10° SSW 15:38:54 17° SSE 15:43:46 10° ESE daylight
10 Dec - 17:20:34 10° SW 17:27:01 27° S 17:33:39 10° ESE visible
10 Dec - 19:08:46 10° WSW 19:15:23 27° S 19:21:51 10° SE visible
10 Dec - 20:58:39 10° WSW 21:03:29 17° SSW 21:08:06 10° SSE visible
11 Dec - 15:22:58 10° SSW 15:27:42 18° SSE 15:32:47 10° ESE daylight
11 Dec - 17:09:26 10° SW 17:15:48 28° S 17:22:30 10° ESE visible
11 Dec - 18:57:40 10° WSW 19:04:10 27° S 19:10:37 10° SE visible
11 Dec - 20:47:47 10° WSW 20:52:16 16° SSW 20:56:36 10° S visible
12 Dec - 15:11:42 10° SSW 15:16:31 19° SSE 15:21:44 10° ESE daylight
12 Dec - 16:58:20 10° SW 17:04:36 28° S 17:11:18 10° ESE visible
12 Dec - 18:46:38 10° WSW 18:52:57 26° S 18:59:20 10° SE visible
12 Dec - 20:37:03 10° SW 20:41:02 14° SSW 20:44:57 10° S visible
13 Dec - 15:00:32 10° SSW 15:05:20 20° SSE 15:10:37 10° ESE daylight
13 Dec - 16:47:18 10° SW 16:53:25 28° S 17:00:03 10° ESE visible
13 Dec - 18:35:40 10° WSW 18:41:45 24° SSW 18:47:59 10° SE visible
13 Dec - 20:26:30 10° SW 20:29:49 13° SSW 20:33:05 10° S visible
14 Dec - 14:49:26 10° SSW 14:54:11 20° SSE 14:59:28 10° ESE daylight
14 Dec - 16:36:18 10° SW 16:42:15 27° S 16:48:47 10° SE daylight
14 Dec - 18:24:44 10° WSW 18:30:33 23° SSW 18:36:34 10° SSE visible
14 Dec - 20:16:22 10° SW 20:18:35 11° SSW 20:20:48 10° SSW visible
